Location: Banios
(43.0451°N, 0.2335°E)
Time: 17:41:18
(UTC+00:00)

A-11 Canister half - Pass Details

Date: 09 December 2021
Orbit: 1516 x 1684 km, 47.2° (Epoch: 22 January)

Event Time Altitude Azimuth Distance (km) Brightness Sun altitude
Exits shadow 03:19:16 10° 171° (S) 3,732 11.0 -42.8°
Reaches altitude 10° 03:19:19 10° 170° (S) 3,722 11.0 -42.8°
Maximum altitude 03:25:47 21° 126° (SE) 2,991 10.8 -41.6°
Drops below altitude 10° 03:32:22 10° 82° (E) 3,824 11.7 -40.4°
Sets 03:36:30 0° 68° (ENE) 4,843 12.4 -39.7°
